This is the latest recevied weather packets stored in our database for station/object N0MPM-4. If no packets are shown the sender has not sent any weather packets the latest 10 day(s).
| Time | Temp. | Humidity | Pressure | Rain* | Wind** | Luminosity | Snow |
|---|---|---|---|---|---|---|---|
| 1778016280 | 13.89° C | 43% | 1010.1 hPa | 0 mm | - | - | - |
| 1778015980 | 13.89° C | 41% | 1010.2 hPa | 0 mm | - | - | - |
| 1778015680 | 13.89° C | 41% | 1010.2 hPa | 0 mm | - | - | - |
| 1778015381 | 13.89° C | 42% | 1010.2 hPa | 0 mm | - | - | - |
| 1778015080 | 13.33° C | 41% | 1010.3 hPa | 0 mm | - | - | - |
| 1778014781 | 13.33° C | 42% | 1010.4 hPa | 0 mm | - | - | - |
| 1778014481 | 13.33° C | 41% | 1010.5 hPa | 0 mm | - | - | - |
| 1778014180 | 13.33° C | 43% | 1010.5 hPa | 0 mm | - | - | - |
| 1778013881 | 13.33° C | 43% | 1010.7 hPa | 0 mm | - | - | - |
| 1778013581 | 13.33° C | 44% | 1010.7 hPa | 0 mm | - | - | - |
| 1778013281 | 13.33° C | 42% | 1010.7 hPa | 0 mm | - | - | - |
| 1778012981 | 13.33° C | 43% | 1010.8 hPa | 0 mm | - | - | - |
| 1778012681 | 12.78° C | 43% | 1010.8 hPa | 0 mm | - | - | - |
| 1778012381 | 12.78° C | 43% | 1010.9 hPa | 0 mm | - | - | - |
| 1778012081 | 12.78° C | 46% | 1010.9 hPa | 0 mm | - | - | - |
| 1778011781 | 12.78° C | 44% | 1011 hPa | 0 mm | - | - | - |
| 1778011481 | 12.78° C | 43% | 1011.1 hPa | 0 mm | - | - | - |
| 1778011181 | 12.78° C | 45% | 1011.2 hPa | 0 mm | - | - | - |
| 1778010881 | 12.78° C | 47% | 1011.2 hPa | 0 mm | - | - | - |
| 1778010581 | 12.78° C | 46% | 1011.2 hPa | 0 mm | - | - | - |
| 1778010281 | 12.78° C | 48% | 1011.3 hPa | 0 mm | - | - | - |
| 1778009981 | 12.78° C | 45% | 1011.2 hPa | 0 mm | - | - | - |
| 1778009681 | 12.78° C | 46% | 1011.4 hPa | 0 mm | - | - | - |
| 1778009381 | 12.78° C | 45% | 1011.4 hPa | 0 mm | - | - | - |
| 1778009081 | 12.78° C | 47% | 1011.5 hPa | 0 mm | - | - | - |
* Rain latest hour (hover to see other rain measurements)
** Current wind speed in m/s (hover to see current wind gust speed)